When you browse on this site, cookies collect data to enhance your experience and personalize the content and advertising you see.
Visit our Privacy Policy to learn more. By continuing to use the site, you agree to this use of cookies and data.
  • In Sweden
  • List of Countries
  • For 7 days
  • Water Temperature
  • Satellite Maps
  • Weather Map
  • Weather Widgets
  • user-avatar
    Login

    Hourly Weather Andippatti

    Today, 11 December, Tuesday

    Time Temperature Precipitation Wind Pressure Humidity
    00:00 +24°C° 0 mm 1 mps 725 mmHg 73%
    01:00 +23°C° 0 mm 1 mps 725 mmHg 73%
    02:00 +23°C° 0 mm 1 mps 725 mmHg 74%
    03:00 +23°C° 0 mm 1 mps 725 mmHg 75%
    04:00 +23°C° 0 mm 1 mps 724 mmHg 75%
    05:00 +22°C° 0 mm 1 mps 724 mmHg 76%
    06:00 +23°C° 0 mm 1 mps 725 mmHg 73%
    07:00 +25°C° 0 mm 1 mps 725 mmHg 69%
    08:00 +26°C° 0 mm 1 mps 726 mmHg 65%
    09:00 +27°C° 0 mm 1 mps 726 mmHg 61%
    10:00 +29°C° 0 mm 2 mps 726 mmHg 57%
    11:00 +30°C° 0 mm 2 mps 726 mmHg 52%
    12:00 +30°C° 0 mm 2 mps 726 mmHg 52%
    13:00 +30°C° 0 mm 2 mps 725 mmHg 51%
    14:00 +31°C° 0 mm 2 mps 724 mmHg 51%
    15:00 +30°C° 0 mm 1 mps 724 mmHg 55%
    16:00 +29°C° 0 mm 1 mps 724 mmHg 59%
    17:00 +28°C° 0 mm 1 mps 724 mmHg 62%
    18:00 +27°C° 0 mm 1 mps 724 mmHg 63%
    19:00 +26°C° 0 mm 1 mps 724 mmHg 65%
    20:00 +26°C° 0 mm 1 mps 725 mmHg 66%
    21:00 +25°C° 0 mm 1 mps 725 mmHg 68%
    22:00 +25°C° 0 mm 1 mps 725 mmHg 70%
    23:00 +24°C° 0 mm 1 mps 725 mmHg 71%

    Tomorrow, 12 December, Wednesday

    Time Temperature Precipitation Wind Pressure Humidity
    00:00 +24°C° 0 mm 1 mps 725 mmHg 73%
    01:00 +24°C° 0 mm 1 mps 725 mmHg 75%
    02:00 +23°C° 0 mm 1 mps 725 mmHg 76%
    03:00 +23°C° 0 mm 1 mps 725 mmHg 77%
    04:00 +23°C° 0 mm 1 mps 725 mmHg 78%
    05:00 +23°C° 0 mm 1 mps 725 mmHg 78%
    06:00 +24°C° 0 mm 1 mps 725 mmHg 75%
    07:00 +23°C° 0 mm 0 mps 726 mmHg 71%
    08:00 +24°C° 0 mm 0 mps 726 mmHg 68%
    09:00 +27°C° 0 mm 1 mps 726 mmHg 63%
    10:00 +29°C° 0 mm 1 mps 726 mmHg 58%
    11:00 +30°C° 0 mm 2 mps 727 mmHg 54%
    12:00 +30°C° 0 mm 2 mps 726 mmHg 52%
    13:00 +31°C° 0 mm 2 mps 725 mmHg 50%
    14:00 +32°C° 0 mm 2 mps 725 mmHg 48%
    15:00 +31°C° 0 mm 2 mps 724 mmHg 52%
    16:00 +30°C° 0 mm 2 mps 724 mmHg 56%
    17:00 +29°C° 0 mm 1 mps 724 mmHg 60%
    18:00 +28°C° 0 mm 1 mps 725 mmHg 62%
    19:00 +27°C° 0 mm 1 mps 725 mmHg 64%
    20:00 +26°C° 0 mm 1 mps 726 mmHg 66%
    21:00 +25°C° 0 mm 1 mps 726 mmHg 68%
    22:00 +25°C° 0 mm 1 mps 726 mmHg 70%
    23:00 +24°C° 0 mm 1 mps 726 mmHg 72%

    Day after tomorrow, 13 December, Thursday

    Time Temperature Precipitation Wind Pressure Humidity
    00:00 +24°C° 0 mm 1 mps 726 mmHg 73%
    01:00 +23°C° 0 mm 1 mps 725 mmHg 75%
    02:00 +23°C° 0 mm 1 mps 725 mmHg 77%
    03:00 +23°C° 0 mm 1 mps 725 mmHg 78%
    04:00 +22°C° 0 mm 1 mps 725 mmHg 79%
    05:00 +22°C° 0 mm 1 mps 725 mmHg 80%
    06:00 +23°C° 0 mm 1 mps 725 mmHg 75%
    07:00 +25°C° 0 mm 1 mps 726 mmHg 70%
    08:00 +26°C° 0 mm 1 mps 727 mmHg 66%
    09:00 +28°C° 0 mm 1 mps 727 mmHg 60%
    10:00 +29°C° 0 mm 2 mps 727 mmHg 54%
    11:00 +31°C° 0 mm 2 mps 727 mmHg 48%
    12:00 +31°C° 0 mm 2 mps 726 mmHg 47%
    13:00 +33°C° 0 mm 3 mps 725 mmHg 45%
    14:00 +33°C° 0 mm 3 mps 724 mmHg 43%
    15:00 +31°C° 0 mm 2 mps 724 mmHg 48%
    16:00 +30°C° 0 mm 2 mps 724 mmHg 52%
    17:00 +29°C° 0 mm 2 mps 724 mmHg 57%
    18:00 +28°C° 0 mm 2 mps 725 mmHg 59%
    19:00 +26°C° 0 mm 1 mps 725 mmHg 61%
    20:00 +25°C° 0 mm 1 mps 726 mmHg 64%
    21:00 +25°C° 0 mm 1 mps 726 mmHg 66%
    22:00 +24°C° 0 mm 1 mps 726 mmHg 68%
    23:00 +24°C° 0 mm 1 mps 726 mmHg 70%

    14 December, Friday

    Time Temperature Precipitation Wind Pressure Humidity
    00:00 +23°C° 0 mm 1 mps 725 mmHg 72%
    01:00 +23°C° 0 mm 1 mps 725 mmHg 74%
    02:00 +21°C° 0 mm 2 mps 724 mmHg 75%
    03:00 +21°C° 0 mm 2 mps 724 mmHg 76%
    04:00 +21°C° 0 mm 2 mps 724 mmHg 76%
    05:00 +21°C° 0 mm 2 mps 724 mmHg 77%
    06:00 +23°C° 0 mm 1 mps 725 mmHg 72%
    07:00 +24°C° 0 mm 1 mps 726 mmHg 67%
    08:00 +26°C° 0 mm 1 mps 726 mmHg 62%
    09:00 +27°C° 0 mm 2 mps 726 mmHg 54%
    10:00 +29°C° 0 mm 2 mps 726 mmHg 46%
    11:00 +31°C° 0 mm 3 mps 726 mmHg 38%
    12:00 +31°C° 0 mm 3 mps 725 mmHg 36%
    13:00 +31°C° 0 mm 3 mps 724 mmHg 35%
    14:00 +31°C° 0 mm 3 mps 724 mmHg 34%
    15:00 +30°C° 0 mm 3 mps 724 mmHg 39%
    16:00 +28°C° 0 mm 2 mps 723 mmHg 45%
    17:00 +27°C° 0 mm 2 mps 723 mmHg 50%
    18:00 +26°C° 0 mm 2 mps 724 mmHg 50%
    19:00 +25°C° 0 mm 2 mps 725 mmHg 50%
    20:00 +25°C° 0 mm 2 mps 725 mmHg 49%
    21:00 +24°C° 0 mm 2 mps 725 mmHg 49%
    22:00 +24°C° 0 mm 2 mps 725 mmHg 49%
    23:00 +24°C° 0 mm 2 mps 725 mmHg 50%

    15 December, Saturday

    Time Temperature Precipitation Wind Pressure Humidity
    00:00 +23°C° 0 mm 2 mps 724 mmHg 52%
    01:00 +23°C° 0 mm 2 mps 724 mmHg 54%
    02:00 +23°C° 0 mm 2 mps 723 mmHg 56%
    03:00 +21°C° 0 mm 2 mps 723 mmHg 58%
    04:00 +21°C° 0 mm 2 mps 723 mmHg 61%
    05:00 +21°C° 0 mm 2 mps 723 mmHg 63%
    06:00 +23°C° 0 mm 2 mps 724 mmHg 62%
    07:00 +24°C° 0 mm 2 mps 725 mmHg 61%
    08:00 +25°C° 0 mm 2 mps 725 mmHg 60%
    09:00 +26°C° 0 mm 2 mps 725 mmHg 55%
    10:00 +28°C° 0 mm 3 mps 725 mmHg 51%
    11:00 +29°C° 0 mm 3 mps 725 mmHg 46%
    12:00 +29°C° 0 mm 3 mps 725 mmHg 46%
    13:00 +30°C° 0 mm 3 mps 724 mmHg 45%
    14:00 +30°C° 0 mm 3 mps 723 mmHg 45%
    15:00 +29°C° 0 mm 2 mps 723 mmHg 51%
    16:00 +28°C° 0 mm 2 mps 723 mmHg 57%
    17:00 +27°C° 0 mm 2 mps 723 mmHg 62%
    18:00 +26°C° 0 mm 2 mps 724 mmHg 64%
    19:00 +25°C° 0 mm 1 mps 725 mmHg 65%
    20:00 +25°C° 0 mm 1 mps 725 mmHg 66%
    21:00 +24°C° 0 mm 1 mps 725 mmHg 68%
    22:00 +24°C° 0 mm 1 mps 725 mmHg 70%
    23:00 +24°C° 0 mm 1 mps 725 mmHg 71%

    16 December, Sunday

    Time Temperature Precipitation Wind Pressure Humidity
    00:00 +23°C° 0 mm 2 mps 725 mmHg 72%
    01:00 +23°C° 0 mm 2 mps 724 mmHg 73%
    02:00 +23°C° 0 mm 2 mps 723 mmHg 74%
    03:00 +21°C° 0 mm 2 mps 723 mmHg 75%
    04:00 +21°C° 0 mm 2 mps 724 mmHg 76%
    05:00 +21°C° 0 mm 2 mps 724 mmHg 76%
    06:00 +23°C° 0 mm 2 mps 724 mmHg 72%
    07:00 +25°C° 0 mm 1 mps 725 mmHg 67%
    08:00 +26°C° 0 mm 1 mps 726 mmHg 63%
    09:00 +27°C° 0 mm 2 mps 726 mmHg 59%
    10:00 +29°C° 0 mm 2 mps 726 mmHg 54%
    11:00 +30°C° 0 mm 2 mps 726 mmHg 50%
    12:00 +30°C° 0 mm 2 mps 725 mmHg 49%
    13:00 +31°C° 0 mm 2 mps 724 mmHg 48%
    14:00 +31°C° 0 mm 2 mps 723 mmHg 47%
    15:00 +30°C° 0 mm 2 mps 723 mmHg 51%
    16:00 +30°C° 0 mm 1 mps 723 mmHg 56%
    17:00 +29°C° 0 mm 1 mps 723 mmHg 61%
    18:00 +28°C° 0 mm 1 mps 724 mmHg 64%
    19:00 +26°C° 0 mm 1 mps 724 mmHg 67%
    20:00 +25°C° 0 mm 1 mps 725 mmHg 70%
    21:00 +25°C° 0 mm 1 mps 725 mmHg 73%
    22:00 +24°C° 0 mm 1 mps 725 mmHg 75%
    23:00 +22°C° 0 mm 0 mps 725 mmHg 78%
    Show more